Location: Altmatt
(47.1333°N, 8.7000°E)
Time: 02:40:35
(UTC+00:00)

Genesis I - Pass Details

Date: 13 July 2020
Orbit: 509 x 513 km, 64.5° (Epoch: 04 August)

Event Time Altitude Azimuth Distance (km) Brightness Sun altitude
Rises 19:56:12 0° 207° (SSW) 2,611 6.6 -5.9°
Reaches altitude 10° 19:58:22 10° 203° (SSW) 1,728 5.7 -6.2°
Maximum altitude 20:02:11 60° 124° (ESE) 591 3.2 -6.7°
Drops below altitude 10° 20:06:01 10° 44° (NE) 1,739 5.9 -7.2°
Sets 20:08:12 0° 41° (NE) 2,629 6.8 -7.5°
